GFSNGP_850_thetae_273.txt.gz
Theta_e
306 307 306 307 304 300 300 301 305 305 303 304 299 294 297 298 296 295 295 295 296 297 296 294 295 296 296 295 294 294 294 294 294 294 294 294 294 294 294 294 294 293 293 294
308 305 305 306 304 301 300 300 300 301 303 300 299 299 297 297 296 295 295 295 296 297 296 294 296 296 296 295 295 294 294 294 293 293 294 294 294 294 294 294 294 293 293 292
307 306 305 307 303 303 299 298 301 303 303 295 295 295 298 298 297 296 295 295 295 297 297 295 296 296 297 296 295 294 294 294 294 294 294 294 293 292 293 293 293 292 292 291
303 306 310 309 302 302 303 302 299 300 299 297 299 300 301 301 300 297 296 295 295 297 297 295 296 296 297 296 295 295 295 295 295 294 294 293 292 292 292 292 292 292 292 291
306 305 307 307 300 302 303 307 303 302 300 299 298 297 298 299 299 297 296 296 295 297 297 295 295 296 297 297 295 295 295 295 295 294 293 292 292 292 292 292 292 292 292 292
299 305 310 307 305 303 304 307 305 303 299 295 296 298 296 303 300 297 296 295 295 297 298 295 295 296 297 297 296 295 295 295 295 294 293 292 292 292 292 291 291 291 291 291
301 302 305 304 303 304 309 308 306 305 302 297 296 302 302 301 300 297 296 295 294 296 298 296 295 295 297 297 296 295 295 294 294 294 293 293 293 292 292 292 292 292 291 291
300 304 309 303 302 306 308 309 308 307 306 304 304 303 302 300 299 297 296 295 294 296 298 296 295 295 296 297 297 296 295 295 294 294 293 293 293 293 293 293 292 292 292 292
305 307 306 305 307 309 308 309 308 309 309 307 305 303 303 300 298 297 296 295 294 296 299 297 295 295 296 297 297 297 296 295 294 294 294 293 293 293 293 293 293 293 293 293
304 307 304 308 309 310 308 309 310 309 308 308 307 304 303 300 298 297 296 295 294 296 298 298 295 294 295 296 296 297 297 296 295 294 294 294 294 294 294 294 294 293 293 293
305 306 309 311 312 312 311 310 308 308 308 308 306 305 304 300 298 297 296 295 294 295 297 299 296 294 294 295 295 296 297 297 296 295 295 294 294 294 294 294 294 294 293 293
308 310 310 312 313 312 312 313 312 309 308 307 306 305 303 300 299 298 296 294 294 295 296 298 298 294 294 294 294 295 296 297 297 297 296 295 295 294 294 294 294 293 293 293
311 312 311 312 312 313 313 314 313 312 309 308 307 305 303 300 299 298 296 295 294 295 295 296 298 297 294 294 294 294 294 295 296 296 296 296 296 296 295 294 294 293 293 293
311 310 309 311 312 313 313 313 312 311 309 308 306 305 303 300 298 297 297 296 295 294 294 295 296 298 297 294 293 293 294 294 295 295 296 296 295 295 295 295 296 295 295 294
311 311 312 312 311 311 311 311 311 311 310 308 306 304 303 301 299 298 297 295 294 294 294 294 295 296 297 296 293 293 293 293 294 294 294 294 294 294 294 294 293 293 293 293
312 312 311 310 311 311 311 310 310 310 310 309 307 305 304 302 300 298 296 295 294 295 294 294 294 295 296 296 295 293 293 292 293 293 294 294 293 293 292 292 292 292 292 292
309 309 310 310 311 311 311 311 311 310 310 309 308 306 304 301 299 297 296 295 295 294 294 294 294 294 295 296 296 294 293 292 292 293 293 293 292 292 292 292 292 292 291 291
309 310 310 310 311 311 311 311 310 310 310 310 308 305 303 302 302 299 297 295 295 294 294 294 294 294 294 296 295 294 294 293 292 292 292 292 292 291 291 291 291 291 291 291
309 308 311 311 311 311 311 310 310 310 309 309 308 307 306 304 302 300 297 296 295 294 295 295 294 294 295 296 295 294 294 293 292 291 291 291 291 291 291 291 291 290 290 290
307 308 308 308 309 309 310 311 310 310 311 308 307 306 305 303 302 300 298 297 297 296 294 294 294 295 295 296 294 293 292 293 292 292 291 291 291 291 291 291 290 290 290 290
307 308 309 309 309 309 309 309 309 309 310 310 310 309 308 305 303 300 298 296 297 295 294 294 294 294 295 295 294 292 292 292 292 293 293 292 293 293 294 294 294 294 293 291
303 306 309 309 309 310 310 309 309 308 307 308 308 307 305 304 302 300 299 298 297 295 294 294 295 294 295 294 294 292 292 292 292 293 294 294 293 294 293 293 293 292 290 289
302 304 306 307 308 310 309 309 309 309 308 307 307 307 305 305 303 302 300 298 295 294 294 294 294 294 295 294 294 292 292 292 292 292 291 291 291 292 293 291 290 290 289 289
301 302 304 305 307 308 308 309 308 308 306 305 305 304 303 303 301 300 299 299 296 294 294 294 294 294 294 294 293 292 291 291 291 291 290 291 291 291 290 290 289 289 289 289
300 301 302 303 304 304 304 305 305 305 304 304 303 302 302 301 300 301 300 297 295 294 294 294 294 294 294 294 293 293 292 291 291 291 291 292 290 290 290 290 289 289 289 289
300 299 300 300 301 301 302 302 302 302 302 302 301 300 300 299 298 298 298 296 294 294 293 294 294 294 294 294 293 293 292 292 291 292 292 291 291 290 289 289 289 289 289 289
302 301 300 299 299 300 300 299 300 300 300 299 299 299 298 297 297 296 296 294 294 294 293 293 293 294 294 293 293 293 293 293 292 291 291 291 291 290 289 289 289 289 290 290

GFSNGP_850_thetae_276.txt.gz
Theta_e
304 305 305 306 304 300 300 301 306 305 302 303 300 295 298 299 298 296 295 295 295 296 297 296 295 296 297 296 295 295 294 295 294 294 294 294 294 293 294 294 293 293 292 292
307 305 304 305 304 301 300 300 299 301 301 300 302 301 298 298 297 297 297 296 296 296 297 296 295 297 297 296 295 295 294 294 294 294 294 294 293 293 293 293 293 292 292 291
307 305 305 307 304 302 300 298 302 303 305 297 296 296 299 299 298 299 299 297 296 296 298 297 296 297 298 296 295 295 294 294 294 295 294 293 293 293 293 293 293 293 292 292
304 305 310 309 302 302 303 302 299 299 300 298 300 302 302 302 302 301 300 298 296 296 298 297 296 297 297 297 296 295 295 295 295 294 293 293 293 292 292 292 292 292 292 292
307 305 307 310 301 302 303 306 302 301 301 301 299 299 301 304 303 302 301 299 297 297 298 297 296 296 297 298 297 295 295 295 295 294 293 292 292 292 292 292 292 292 292 292
300 306 311 309 305 303 302 306 305 302 300 296 298 301 300 306 304 301 299 298 297 296 297 298 296 296 297 298 297 296 295 295 295 294 293 293 292 292 292 293 293 292 292 292
302 304 305 305 303 303 309 309 305 304 302 298 297 304 305 304 303 302 299 297 296 295 298 298 296 296 297 297 299 296 296 295 295 294 294 294 293 293 293 293 293 293 292 292
300 303 309 303 302 306 307 308 307 306 306 305 305 305 305 303 302 301 298 296 296 296 297 298 297 295 296 297 297 297 296 295 295 295 294 294 294 294 294 293 293 293 293 292
306 307 306 304 307 309 307 308 309 308 308 308 307 305 305 304 301 300 299 297 296 296 296 298 298 296 296 297 297 297 297 296 295 295 295 294 294 294 294 294 293 293 293 293
303 306 304 308 309 309 309 309 309 309 309 308 309 307 305 304 301 300 298 297 297 296 295 297 299 297 295 295 296 296 297 297 296 295 295 294 294 294 294 294 294 293 293 293
303 305 308 311 311 311 311 310 309 308 308 308 308 307 306 305 303 300 299 297 297 296 295 297 299 299 295 294 295 296 296 297 297 296 295 295 294 294 294 294 294 294 293 293
306 309 309 311 311 311 312 312 312 310 309 309 308 308 307 305 304 301 299 298 297 296 295 296 298 300 297 294 294 295 295 295 297 297 297 296 295 295 294 294 294 293 293 293
311 311 311 312 312 313 313 313 313 312 312 309 309 308 307 305 304 302 299 298 297 297 296 295 296 299 299 296 294 294 294 294 295 295 296 296 296 296 296 295 294 294 294 293
310 309 308 311 311 312 311 311 311 311 312 311 309 307 307 305 303 301 300 299 297 296 295 295 295 297 298 298 295 294 294 294 294 294 294 295 295 294 294 294 295 294 293 293
312 312 311 312 311 311 311 311 311 312 311 310 310 308 307 306 304 303 301 299 297 296 295 294 294 295 296 297 297 296 294 293 293 293 293 294 294 294 293 293 293 292 292 292
313 311 311 310 312 312 312 311 310 311 311 312 310 310 309 306 304 303 300 299 298 297 296 295 295 294 294 295 297 297 296 293 293 293 293 293 293 293 293 292 292 292 291 291
310 309 308 308 310 311 311 311 311 311 310 309 311 311 309 306 304 303 301 299 298 297 296 295 295 294 294 294 295 296 296 294 293 292 292 292 292 292 292 292 291 291 291 291
307 307 307 307 308 309 309 309 309 309 310 310 308 308 307 307 306 305 303 300 297 296 296 295 295 294 294 294 295 295 295 295 294 293 292 292 292 292 291 291 291 291 291 290
304 305 306 307 307 308 308 309 311 311 311 310 309 309 308 308 306 305 303 301 299 297 297 295 295 294 295 294 294 294 295 294 295 294 292 291 291 291 291 291 291 291 291 290
301 302 304 306 306 307 307 308 310 310 309 308 309 308 308 308 307 305 303 302 302 301 298 296 295 295 295 294 294 295 295 294 293 293 292 291 291 291 291 291 291 292 292 293
299 299 300 302 305 307 308 309 308 308 308 307 308 309 310 309 307 305 303 302 303 299 297 295 295 295 295 295 294 295 295 293 292 292 293 292 292 292 292 293 293 293 293 291
298 299 299 301 303 306 307 309 309 308 308 308 307 307 308 308 307 305 304 303 303 300 297 295 295 295 295 294 295 295 295 292 292 292 291 292 292 291 291 292 292 291 289 289
298 298 298 299 302 304 306 307 308 308 308 308 307 306 306 307 307 306 305 303 302 299 297 295 295 295 294 294 295 295 294 293 292 292 292 292 291 290 292 292 290 290 289 289
301 298 298 298 300 301 303 304 305 306 306 306 305 305 304 304 304 303 302 302 301 300 297 296 294 294 294 295 295 295 294 293 292 292 292 291 290 291 291 290 290 289 289 289
302 300 298 297 298 299 300 301 302 303 303 303 303 303 302 302 302 302 302 301 299 299 297 295 294 294 294 294 295 295 294 293 292 291 291 291 292 291 290 290 289 289 289 289
304 302 301 297 296 297 298 299 300 299 299 300 301 301 301 301 300 299 299 299 297 297 295 294 293 293 294 294 295 294 294 293 291 291 291 292 292 290 290 289 289 289 289 289
303 303 302 303 299 297 297 298 298 298 297 297 297 298 298 298 298 297 297 297 296 296 295 293 293 294 294 294 294 294 293 292 292 292 292 292 291 290 290 289 289 289 290 290

GFSNGP_850_thetae_279.txt.gz
Theta_e
304 304 304 306 304 301 302 304 311 308 304 307 304 300 300 303 300 298 298 296 296 296 297 298 296 297 297 297 296 295 294 295 294 294 295 294 293 293 293 293 293 293 292 292
307 304 304 306 305 302 302 301 301 302 304 303 303 302 301 301 300 298 299 299 296 297 297 298 297 297 298 298 296 296 295 295 295 295 295 294 293 294 293 293 293 292 292 292
308 304 305 308 305 304 301 299 303 305 308 300 300 298 300 302 301 301 301 300 298 297 298 299 297 297 298 298 297 296 296 295 295 296 295 294 294 294 293 293 293 292 292 292
308 306 311 311 302 303 304 303 300 302 301 302 302 303 303 304 305 303 302 301 300 298 298 299 297 297 297 298 297 296 296 296 296 297 296 294 294 294 293 293 293 293 293 292
310 307 308 312 302 303 305 308 303 303 304 302 301 301 304 306 306 306 304 302 301 299 299 299 298 297 297 298 298 297 296 296 296 296 296 294 294 293 293 293 293 293 293 292
302 309 312 310 304 303 303 309 305 302 301 298 299 305 307 308 307 306 304 302 301 299 298 298 298 297 297 298 298 298 296 295 296 296 295 294 293 293 293 293 293 293 292 292
304 307 307 306 302 303 310 313 306 304 302 299 300 306 307 306 306 306 304 301 300 298 297 299 299 297 297 298 299 299 297 296 295 295 294 294 294 293 293 293 293 293 293 292
302 305 311 303 302 307 308 307 308 307 306 304 306 306 306 306 305 304 304 300 299 298 297 298 298 298 297 298 298 298 298 297 296 295 295 294 294 293 293 293 294 293 293 293
308 308 306 305 307 309 308 308 308 308 308 307 307 307 306 306 305 303 303 301 299 298 298 297 298 299 297 298 297 298 298 298 297 296 295 295 294 294 294 294 294 294 293 293
305 307 305 307 308 309 310 310 309 309 307 307 308 308 308 306 306 303 302 301 299 298 297 297 298 299 298 296 296 297 298 298 298 297 296 295 295 294 294 294 294 293 293 293
302 304 308 311 311 310 310 311 311 311 311 309 307 309 308 307 306 305 302 300 299 298 298 297 297 298 299 297 295 296 296 297 297 297 297 296 296 295 295 294 294 294 294 293
306 308 308 311 312 311 311 311 311 311 311 310 309 309 308 308 307 305 304 301 299 298 297 297 296 296 299 299 296 295 295 296 296 296 297 297 297 296 296 296 295 295 294 294
310 310 310 309 309 310 310 311 310 310 311 311 311 310 308 308 307 306 304 302 300 299 298 297 296 295 297 299 298 295 294 294 294 295 295 295 296 296 296 295 294 294 294 293
310 311 311 311 311 314 315 315 313 313 314 313 311 311 310 308 307 306 306 304 301 299 298 297 296 295 295 297 299 298 295 294 294 294 294 294 294 295 295 295 294 293 293 292
314 314 313 314 314 314 313 314 314 314 314 313 311 310 310 309 309 308 306 304 302 299 298 297 296 295 295 295 297 298 297 295 294 293 293 293 293 294 294 294 293 293 292 291
312 312 312 312 312 313 312 311 311 312 312 312 310 310 310 309 308 307 306 304 303 301 300 298 297 296 295 295 295 296 297 296 295 294 293 293 293 293 293 293 292 292 291 291
304 306 307 307 307 308 308 308 308 308 308 309 310 309 308 308 307 307 307 305 304 302 300 298 298 296 295 294 294 295 295 296 296 295 293 292 292 292 292 292 292 291 291 291
299 300 302 303 305 305 306 306 308 308 307 308 308 309 310 309 309 309 308 306 304 302 301 299 297 296 295 294 294 294 295 295 295 295 294 293 292 292 292 292 291 291 291 291
299 299 300 300 300 301 303 305 305 306 308 310 309 310 312 312 312 310 307 305 304 303 303 300 297 296 295 295 294 294 294 295 295 295 295 294 292 292 291 291 291 291 291 291
300 300 299 299 300 300 301 303 304 305 306 306 308 310 311 311 311 309 308 307 307 306 303 301 298 297 295 295 294 294 294 294 295 295 295 294 292 291 291 291 291 292 293 294
302 300 299 299 299 300 301 302 302 305 306 306 306 307 308 308 308 307 306 307 308 306 303 300 298 297 295 295 295 295 294 294 295 295 294 293 292 291 291 292 293 294 294 292
303 301 299 298 298 299 300 300 302 304 306 306 306 306 306 307 307 307 306 306 307 306 304 302 299 297 295 295 294 295 294 295 295 294 292 292 292 292 292 292 293 293 291 290
304 304 302 298 297 298 299 299 300 302 303 305 306 305 306 306 306 305 306 306 306 304 302 301 299 297 295 294 294 294 294 295 295 293 292 292 292 292 291 292 293 291 290 289
303 304 305 303 299 298 299 299 298 299 301 303 305 304 303 303 304 304 304 304 302 302 303 300 298 296 294 294 294 294 294 295 295 293 292 292 292 292 291 292 291 290 290 289
301 302 303 303 304 301 298 298 298 297 298 299 301 301 302 302 301 301 301 302 301 301 301 299 297 295 294 294 294 294 295 295 294 293 292 292 292 291 293 290 290 290 290 289
299 300 302 302 302 303 300 297 297 296 296 297 298 299 299 299 299 299 299 299 298 299 299 297 296 294 294 294 294 294 294 295 294 293 292 292 292 292 291 290 290 289 289 289
298 299 300 302 302 303 303 301 296 296 295 295 296 296 296 297 297 296 297 297 297 297 297 295 295 294 294 294 294 294 294 294 294 293 292 292 293 292 290 290 290 289 290 290

GFSNGP_850_thetae_282.txt.gz
Theta_e
311 310 308 310 310 306 308 312 315 316 315 315 314 313 309 307 305 302 300 298 297 297 298 298 298 297 297 298 298 296 296 295 295 295 296 295 294 294 294 293 293 293 292 292
312 308 308 309 310 310 308 309 310 309 310 312 312 311 308 307 304 302 300 300 299 297 297 298 299 298 298 298 298 297 296 295 295 295 296 295 294 293 293 293 293 293 292 292
316 309 309 313 312 312 310 308 310 312 315 314 310 307 307 307 305 303 302 301 302 300 298 298 299 298 298 298 299 298 296 296 295 295 296 295 293 293 293 293 293 293 293 292
316 311 317 316 307 310 310 311 309 310 311 311 309 307 305 305 306 304 303 303 303 302 299 298 299 299 298 298 299 298 297 296 296 296 296 295 294 293 293 293 293 293 293 293
320 315 316 316 306 308 311 315 311 311 310 308 306 304 308 308 308 308 307 306 304 303 302 299 299 299 298 298 299 299 298 297 296 296 296 296 295 293 293 293 293 293 293 293
311 321 318 316 307 304 306 316 309 307 308 306 303 311 315 308 308 307 306 306 304 303 302 299 299 299 298 298 299 300 299 297 297 297 297 296 295 294 294 293 293 293 293 293
313 318 316 313 305 304 314 317 310 306 306 304 306 309 308 307 305 305 306 305 304 302 301 300 299 299 298 298 299 300 299 298 297 296 296 295 295 294 294 294 294 293 293 293
313 317 316 304 303 312 314 309 307 307 307 306 306 307 307 307 307 306 304 305 303 301 301 300 298 299 299 298 298 298 299 299 298 297 296 295 295 295 294 294 294 294 294 293
316 316 310 305 307 308 308 307 307 308 309 308 307 308 308 308 307 306 304 304 303 301 300 299 298 298 299 299 298 298 298 298 298 298 297 296 296 295 295 295 294 294 294 293
311 314 312 310 308 309 309 309 311 311 311 309 308 307 307 307 307 307 306 303 303 301 299 299 298 298 299 299 298 297 297 297 298 298 297 297 296 296 295 295 294 294 294 294
310 309 310 311 309 310 310 311 311 311 311 310 310 310 308 308 307 306 306 305 302 302 300 299 298 298 298 299 299 297 296 296 297 297 297 297 297 297 296 296 295 295 295 294
315 312 310 312 309 310 311 311 310 310 312 313 314 313 313 312 309 307 306 305 304 302 300 299 298 298 297 297 299 298 296 295 296 296 296 296 297 297 297 296 296 295 295 294
311 310 309 309 310 311 311 312 312 312 313 314 314 315 314 313 311 309 307 306 305 304 301 299 298 297 297 297 297 299 298 296 295 295 295 295 295 295 295 295 295 294 294 293
309 310 310 311 312 312 312 313 313 313 314 314 314 314 313 312 311 310 309 308 305 304 302 300 299 298 297 296 296 297 299 298 296 294 294 294 294 294 294 294 294 293 293 292
312 313 313 313 313 313 312 312 311 310 311 312 312 311 311 313 311 310 309 307 306 304 304 301 299 298 297 296 295 295 297 298 297 295 294 294 294 293 293 293 294 293 293 292
307 306 307 308 309 310 311 311 310 310 309 310 309 309 309 310 310 311 310 308 307 307 306 304 301 299 298 297 295 295 295 297 298 297 295 294 293 293 293 293 293 293 292 291
300 303 303 303 304 304 305 305 306 307 307 307 307 310 309 307 308 309 310 310 309 308 306 304 303 300 298 296 295 295 295 295 296 297 296 296 294 293 293 293 292 292 292 291
300 298 298 298 298 298 298 299 299 301 303 305 305 306 308 308 308 312 311 309 308 308 308 306 303 299 298 296 295 295 294 294 295 295 296 296 295 293 293 292 292 292 291 291
301 300 299 299 297 297 298 299 300 301 302 303 303 303 306 308 309 308 309 311 311 309 308 306 304 301 298 297 295 295 294 294 294 295 295 295 295 294 294 292 292 291 291 291
303 303 302 300 299 297 299 300 299 299 301 302 302 302 304 306 308 309 310 310 312 312 308 307 304 302 299 297 296 295 295 294 294 294 295 295 295 295 293 292 291 291 291 292
304 304 304 304 302 300 298 298 299 298 299 301 301 302 304 305 305 305 306 308 311 310 308 306 304 302 300 297 296 295 295 294 294 294 294 295 295 295 293 291 291 292 293 294
302 303 304 305 304 303 304 301 298 297 298 299 301 302 303 305 305 304 305 306 306 306 306 305 304 302 300 297 295 295 295 294 294 294 294 295 295 294 293 292 292 293 294 292
300 302 302 303 304 303 304 303 298 297 297 297 299 300 300 302 303 303 304 305 305 304 305 304 303 301 300 297 295 295 294 294 294 294 294 295 294 294 293 293 293 294 292 290
297 298 301 301 303 303 303 303 302 296 296 296 297 298 298 300 301 302 302 303 303 302 302 303 302 301 298 296 295 295 294 294 294 294 295 295 294 294 294 293 294 293 291 290
296 297 299 299 301 302 302 302 302 298 296 296 296 297 297 297 297 299 300 300 300 299 300 301 300 299 297 296 295 295 294 294 294 295 295 294 294 293 293 293 293 291 290 290
296 297 298 298 300 301 302 302 302 300 296 295 296 296 296 296 296 296 297 298 297 297 298 298 297 296 295 295 294 294 294 294 294 295 295 294 293 292 293 293 292 290 290 290
297 297 298 299 300 300 300 301 302 301 300 298 296 295 294 295 295 295 295 296 296 297 297 296 295 295 295 294 294 294 294 294 294 295 295 294 293 293 294 293 291 290 290 290